Miscellaneous Local Product
Issued by NWS Hastings, NE

Home | Current Version | Previous Version | Text Only | Print | Product List | Glossary On
Versions: 1 2 3 4 5 6 7 8 9 10 11 12 13 14 15 16 17 18 19 20 21 22 23 24 25 26 27 28 29 30 31 32 33 34 35 36 37 38 39 40 41 42 43 44 45 46 47 48 49 50
000
AXUS43 KGID 281302
MISGRI

GID CWA HOURLY WEATHER ROUNDUP
NATIONAL WEATHER SERVICE HASTINGS NE
700 AM CST SUN DEC 28 2014

NOTE: "FAIR" INDICATES FEW OR NO CLOUDS BELOW 12,000 FEET WITH NO
SIGNIFICANT WEATHER AND/OR OBSTRUCTIONS TO VISIBILITY.

...SOUTH CENTRAL NEBRASKA...

CITY           SKY/WX    TMP DP  RH WIND       PRES   REMARKS
GRAND ISLAND   PTCLDY     8   3  80 W7        30.09S WCI  -3
HASTINGS       PTCLDY     9   4  80 W6        30.08S WCI  -1
KEARNEY        PTCLDY     9   3  78 SW8       30.08S WCI  -4
ORD            PTCLDY     2  -1  88 NW3       30.06F
YORK           PTCLDY     9   7  92 W7        30.10S WCI  -3
AURORA         PTCLDY     9   6  85 SW6       30.09S WCI  -1
LEXINGTON      CLEAR      4   1  86 NW6       30.06F WCI  -7
HOLDREGE       PTCLDY    10   5  80 W3        30.08S
HEBRON         CLEAR     15  10  82 SW6       30.14S WCI   6

...NEBRASKA PANHANDLE...

CITY           SKY/WX    TMP DP  RH WIND       PRES   REMARKS
CHADRON        PTCLDY     4  -1  80 W8        29.96S WCI  -9
ALLIANCE       MOCLDY     2  -2  83 CALM      29.95S
SCOTTSBLUFF    MOCLDY     6   2  83 E5        29.96F WCI  -3
SIDNEY         CLOUDY     5  -2  72 W6        29.97S WCI  -6

...WESTERN AND NORTH CENTRAL NEBRASKA...

CITY           SKY/WX    TMP DP  RH WIND       PRES   REMARKS
VALENTINE      CLEAR      0  -5  79 SW6       30.02S WCI -12
AINSWORTH      PTCLDY     6   1  79 W6        30.01F WCI  -5
ONEILL         MOCLDY     8   5  88 W3        30.05S
BROKEN BOW     PTCLDY     2  -2  83 CALM      30.04S
IMPERIAL       MOCLDY     2  -3  80 W7        30.03S WCI -11
NORTH PLATTE   PTCLDY    -2  -6  83 NW8       30.06R WCI -17
MCCOOK         MOCLDY     3  -1  83 W6        30.07F WCI  -8

...EASTERN NEBRASKA...

CITY           SKY/WX    TMP DP  RH WIND       PRES   REMARKS
NORFOLK        PTCLDY     8   4  83 W5        30.08S WCI   0
SO SIOUX CITY  CLEAR      4   0  83 E3        30.12S
TEKAMAH        CLEAR     12   8  84 S5        30.13S WCI   4
COLUMBUS       PTCLDY     3  -6  66 W3        30.11S
ALBION         PTCLDY     4   1  83 NW3       30.08S
OMAHA EPPLEY   CLEAR     16  13  88 SE6       30.15S WCI   7
OFFUTT AFB     CLEAR     15  12  87 SE2       30.14S
MILLARD        CLEAR     16  13  87 CALM      30.15R
LINCOLN        PTCLDY    14  10  84 S3        30.15S
NEBRASKA CITY  CLEAR     17  13  82 SW9       30.15S WCI   6
BEATRICE       CLEAR     14  11  89 S5        30.15S WCI   6
FALLS CITY     CLEAR     17  12  80 SW3       30.17F

...NORTHERN KANSAS...

CITY           SKY/WX    TMP DP  RH WIND       PRES   REMARKS
GOODLAND       PTCLDY    12   7  80 W9        30.01F WCI   0
HILL CITY      MOCLDY     7   3  84 S5        30.12R WCI  -2
NORTON         SUNNY      3  -2  78 SW8       30.08S WCI -10
PHILLIPSBURG   CLEAR     10   7  85 SW6       30.13S WCI   1
BELOIT         CLEAR     10   9  92 CALM      30.17S
HAYS           CLEAR     12   1  62 W5        30.14R WCI   4
RUSSELL        CLEAR     13  11  92 S8        30.14S WCI   2
CONCORDIA      CLEAR     17  14  88 SW9       30.16S WCI   6
SALINA         CLEAR     18  13  80 CALM      30.19F
TOPEKA         CLEAR     17  14  88 CALM      30.22R



USA.gov is the U.S. government's official web portal to all federal, state and local government web resources and services.